QPF
0.00 0.00 0.00 0.00 0.00 0.00 0.00 0.00 0.00 0.01 0.01 0.01 0.01 0.01 0.01 0.02 0.02 0.02 0.02 0.01 0.01 0.01 0.01 0.01 0.01 0.01 0.01 0.02 0.03 0.04 0.05 0.05 0.04 0.02 0.01 0.01 0.01 0.01 0.01 0.02 0.02 0.02 0.02 0.01
0.00 0.00 0.00 0.00 0.00 0.00 0.00 0.00 0.00 0.01 0.01 0.01 0.01 0.01 0.01 0.01 0.01 0.02 0.02 0.02 0.01 0.01 0.01 0.01 0.01 0.01 0.01 0.01 0.01 0.02 0.04 0.05 0.04 0.03 0.02 0.01 0.01 0.01 0.01 0.02 0.02 0.03 0.02 0.02
0.00 0.00 0.00 0.00 0.00 0.00 0.00 0.00 0.00 0.00 0.00 0.00 0.00 0.00 0.00 0.01 0.01 0.01 0.02 0.03 0.02 0.02 0.01 0.01 0.02 0.02 0.02 0.01 0.01 0.02 0.02 0.02 0.02 0.02 0.02 0.01 0.01 0.01 0.01 0.01 0.02 0.03 0.03 0.03
0.00 0.00 0.00 0.00 0.00 0.00 0.00 0.01 0.01 0.01 0.01 0.01 0.00 0.00 0.00 0.00 0.01 0.01 0.01 0.01 0.02 0.02 0.02 0.02 0.02 0.02 0.02 0.02 0.02 0.02 0.02 0.02 0.01 0.02 0.02 0.02 0.03 0.01 0.01 0.01 0.01 0.02 0.03 0.04
0.01 0.01 0.01 0.00 0.00 0.00 0.00 0.01 0.01 0.01 0.01 0.01 0.01 0.01 0.01 0.01 0.01 0.01 0.01 0.01 0.01 0.01 0.02 0.02 0.02 0.01 0.01 0.01 0.02 0.03 0.03 0.03 0.02 0.02 0.02 0.03 0.03 0.03 0.03 0.02 0.01 0.01 0.02 0.03
0.00 0.01 0.01 0.01 0.01 0.00 0.00 0.01 0.01 0.01 0.01 0.01 0.01 0.01 0.02 0.02 0.02 0.02 0.02 0.02 0.02 0.02 0.02 0.02 0.02 0.02 0.02 0.02 0.02 0.01 0.02 0.02 0.02 0.03 0.03 0.03 0.04 0.04 0.05 0.05 0.04 0.03 0.03 0.03
0.01 0.01 0.00 0.01 0.01 0.01 0.01 0.01 0.01 0.01 0.00 0.01 0.01 0.01 0.01 0.02 0.02 0.04 0.06 0.05 0.05 0.03 0.02 0.02 0.02 0.02 0.03 0.03 0.02 0.02 0.02 0.02 0.02 0.02 0.03 0.03 0.04 0.05 0.05 0.06 0.06 0.05 0.05 0.05
0.01 0.01 0.01 0.02 0.02 0.02 0.01 0.01 0.01 0.01 0.01 0.01 0.01 0.01 0.01 0.02 0.02 0.02 0.03 0.04 0.05 0.05 0.04 0.02 0.01 0.01 0.01 0.02 0.02 0.02 0.02 0.03 0.03 0.02 0.02 0.02 0.03 0.03 0.04 0.05 0.06 0.07 0.08 0.09
0.01 0.01 0.01 0.01 0.01 0.02 0.02 0.02 0.02 0.01 0.01 0.01 0.01 0.01 0.01 0.01 0.02 0.02 0.01 0.01 0.01 0.01 0.01 0.01 0.01 0.01 0.02 0.02 0.03 0.03 0.03 0.04 0.04 0.03 0.03 0.03 0.03 0.03 0.03 0.05 0.07 0.09 0.11 0.10
0.02 0.01 0.01 0.01 0.02 0.01 0.01 0.02 0.02 0.03 0.02 0.01 0.01 0.01 0.01 0.02 0.02 0.02 0.01 0.00 0.00 0.01 0.01 0.01 0.01 0.02 0.02 0.02 0.03 0.04 0.04 0.04 0.04 0.03 0.04 0.05 0.05 0.05 0.06 0.06 0.08 0.08 0.07 0.06
0.02 0.02 0.02 0.01 0.02 0.03 0.02 0.02 0.02 0.03 0.04 0.04 0.02 0.01 0.01 0.02 0.02 0.02 0.01 0.01 0.00 0.01 0.01 0.01 0.01 0.01 0.02 0.02 0.03 0.04 0.04 0.05 0.05 0.05 0.05 0.06 0.06 0.06 0.05 0.06 0.07 0.07 0.05 0.04
0.01 0.01 0.01 0.01 0.02 0.02 0.03 0.03 0.03 0.03 0.02 0.02 0.02 0.01 0.02 0.03 0.05 0.04 0.03 0.02 0.02 0.02 0.01 0.01 0.01 0.01 0.02 0.02 0.03 0.04 0.05 0.05 0.05 0.05 0.04 0.04 0.04 0.04 0.04 0.04 0.04 0.04 0.04 0.04
0.02 0.01 0.01 0.01 0.01 0.01 0.01 0.02 0.02 0.02 0.02 0.02 0.01 0.01 0.02 0.03 0.04 0.06 0.07 0.06 0.06 0.04 0.03 0.04 0.03 0.03 0.04 0.04 0.06 0.07 0.07 0.08 0.08 0.08 0.06 0.04 0.04 0.04 0.04 0.04 0.05 0.04 0.04 0.05
0.02 0.02 0.02 0.01 0.01 0.01 0.01 0.01 0.01 0.01 0.01 0.00 0.01 0.01 0.01 0.02 0.06 0.12 0.15 0.13 0.10 0.08 0.07 0.06 0.05 0.04 0.04 0.05 0.07 0.10 0.11 0.10 0.10 0.11 0.09 0.07 0.06 0.05 0.04 0.05 0.05 0.04 0.04 0.04
0.01 0.02 0.04 0.03 0.01 0.01 0.01 0.01 0.01 0.01 0.01 0.01 0.01 0.01 0.01 0.02 0.04 0.10 0.13 0.12 0.09 0.10 0.09 0.06 0.05 0.06 0.06 0.06 0.07 0.09 0.10 0.11 0.12 0.13 0.11 0.07 0.08 0.07 0.06 0.07 0.09 0.10 0.09 0.07
0.02 0.02 0.04 0.06 0.03 0.02 0.02 0.02 0.02 0.02 0.01 0.01 0.01 0.01 0.01 0.01 0.03 0.05 0.08 0.08 0.06 0.08 0.08 0.05 0.04 0.04 0.06 0.07 0.07 0.08 0.09 0.10 0.09 0.09 0.08 0.07 0.07 0.07 0.08 0.08 0.09 0.10 0.09 0.08
0.03 0.04 0.07 0.08 0.06 0.03 0.02 0.02 0.01 0.01 0.01 0.01 0.01 0.01 0.01 0.02 0.03 0.04 0.05 0.05 0.06 0.06 0.04 0.03 0.04 0.03 0.04 0.04 0.04 0.05 0.06 0.06 0.05 0.05 0.06 0.07 0.08 0.08 0.07 0.08 0.07 0.07 0.08 0.08
0.03 0.04 0.06 0.06 0.04 0.02 0.01 0.01 0.01 0.01 0.01 0.01 0.01 0.02 0.03 0.03 0.05 0.05 0.04 0.04 0.04 0.04 0.02 0.03 0.03 0.04 0.04 0.03 0.04 0.03 0.04 0.05 0.05 0.06 0.06 0.06 0.07 0.08 0.08 0.07 0.09 0.10 0.10 0.09
0.04 0.04 0.03 0.03 0.02 0.01 0.01 0.01 0.01 0.01 0.01 0.02 0.02 0.03 0.04 0.04 0.05 0.05 0.04 0.05 0.04 0.03 0.03 0.03 0.04 0.05 0.05 0.04 0.04 0.03 0.04 0.05 0.04 0.05 0.06 0.07 0.06 0.05 0.06 0.07 0.08 0.09 0.09 0.09
0.04 0.03 0.03 0.02 0.03 0.03 0.03 0.03 0.03 0.02 0.01 0.01 0.03 0.04 0.05 0.03 0.03 0.04 0.05 0.04 0.04 0.03 0.03 0.04 0.04 0.04 0.04 0.04 0.05 0.05 0.05 0.05 0.05 0.05 0.06 0.08 0.06 0.04 0.05 0.07 0.09 0.11 0.11 0.08
0.04 0.03 0.03 0.03 0.06 0.07 0.08 0.08 0.06 0.04 0.02 0.02 0.02 0.02 0.03 0.03 0.02 0.03 0.04 0.03 0.04 0.04 0.03 0.03 0.03 0.03 0.03 0.04 0.05 0.05 0.05 0.06 0.06 0.07 0.08 0.09 0.09 0.08 0.07 0.08 0.09 0.09 0.09 0.07
0.05 0.04 0.04 0.04 0.06 0.09 0.12 0.12 0.11 0.08 0.05 0.04 0.03 0.02 0.02 0.03 0.03 0.04 0.05 0.03 0.02 0.04 0.03 0.02 0.02 0.03 0.03 0.04 0.04 0.04 0.04 0.05 0.05 0.06 0.07 0.08 0.10 0.11 0.12 0.10 0.08 0.08 0.08 0.07
0.05 0.05 0.05 0.05 0.04 0.05 0.10 0.12 0.12 0.08 0.06 0.05 0.05 0.03 0.03 0.03 0.05 0.05 0.05 0.05 0.04 0.04 0.03 0.02 0.03 0.03 0.03 0.04 0.05 0.05 0.04 0.05 0.06 0.05 0.06 0.07 0.07 0.09 0.10 0.10 0.09 0.08 0.07 0.06
0.06 0.06 0.05 0.05 0.04 0.05 0.06 0.08 0.10 0.09 0.09 0.09 0.08 0.05 0.03 0.04 0.04 0.06 0.06 0.08 0.07 0.05 0.03 0.03 0.03 0.03 0.04 0.04 0.03 0.03 0.04 0.05 0.06 0.07 0.06 0.05 0.05 0.05 0.04 0.05 0.06 0.05 0.04 0.04
0.05 0.05 0.06 0.06 0.05 0.05 0.05 0.06 0.07 0.09 0.11 0.13 0.12 0.07 0.04 0.04 0.05 0.04 0.05 0.06 0.07 0.07 0.05 0.04 0.03 0.04 0.05 0.05 0.05 0.04 0.04 0.04 0.05 0.05 0.06 0.06 0.07 0.06 0.05 0.04 0.04 0.03 0.03 0.03
0.03 0.05 0.07 0.13 0.11 0.05 0.04 0.05 0.04 0.05 0.07 0.11 0.14 0.10 0.05 0.04 0.07 0.06 0.04 0.04 0.05 0.07 0.07 0.06 0.05 0.04 0.04 0.04 0.05 0.06 0.05 0.05 0.05 0.05 0.05 0.04 0.03 0.04 0.05 0.04 0.03 0.03 0.03 0.03
0.03 0.04 0.08 0.12 0.07 0.04 0.04 0.05 0.05 0.05 0.05 0.07 0.08 0.09 0.06 0.06 0.08 0.08 0.05 0.04 0.03 0.04 0.05 0.07 0.07 0.05 0.04 0.04 0.05 0.06 0.06 0.06 0.07 0.08 0.06 0.05 0.05 0.05 0.05 0.05 0.04 0.04 0.04 0.04
MSLP
1003.38 1003.34 1003.32 1003.32 1003.33 1003.33 1003.31 1003.27 1003.22 1003.17 1003.16 1003.23 1003.40 1003.71 1004.18 1004.78 1005.51 1006.32 1007.17 1008.00 1008.77 1009.47 1010.10 1010.65 1011.16 1011.66 1012.16 1012.69 1013.24 1013.80 1014.35 1014.85 1015.26 1015.58 1015.79 1015.89 1015.92 1015.89 1015.83 1015.78 1015.76 1015.76 1015.78 1015.81
1003.30 1003.19 1003.02 1002.81 1002.56 1002.29 1002.02 1001.77 1001.58 1001.47 1001.49 1001.65 1001.98 1002.47 1003.10 1003.86 1004.69 1005.55 1006.40 1007.20 1007.93 1008.58 1009.17 1009.71 1010.24 1010.78 1011.35 1011.94 1012.56 1013.17 1013.75 1014.26 1014.69 1015.00 1015.20 1015.30 1015.32 1015.30 1015.25 1015.21 1015.18 1015.18 1015.19 1015.22
1003.20 1002.99 1002.66 1002.24 1001.75 1001.23 1000.73 1000.30 999.99 999.84 999.88 1000.13 1000.59 1001.22 1002.00 1002.87 1003.78 1004.68 1005.52 1006.29 1006.98 1007.59 1008.16 1008.70 1009.25 1009.83 1010.44 1011.10 1011.77 1012.43 1013.04 1013.57 1014.01 1014.33 1014.54 1014.66 1014.70 1014.71 1014.69 1014.67 1014.67 1014.68 1014.70 1014.73
1003.07 1002.72 1002.21 1001.59 1000.88 1000.15 999.46 998.88 998.47 998.29 998.35 998.67 999.22 999.97 1000.85 1001.80 1002.75 1003.67 1004.50 1005.25 1005.90 1006.49 1007.04 1007.59 1008.17 1008.80 1009.47 1010.18 1010.90 1011.60 1012.25 1012.81 1013.27 1013.62 1013.86 1014.02 1014.11 1014.17 1014.21 1014.25 1014.29 1014.34 1014.38 1014.41
1002.88 1002.35 1001.66 1000.84 999.93 999.02 998.18 997.49 997.01 996.81 996.89 997.26 997.88 998.69 999.63 1000.62 1001.59 1002.51 1003.33 1004.05 1004.69 1005.28 1005.84 1006.42 1007.04 1007.73 1008.46 1009.23 1010.00 1010.75 1011.43 1012.03 1012.52 1012.91 1013.21 1013.44 1013.61 1013.75 1013.87 1013.99 1014.09 1014.19 1014.26 1014.31
1002.59 1001.86 1000.97 999.97 998.89 997.84 996.89 996.12 995.61 995.40 995.50 995.90 996.56 997.41 998.37 999.37 1000.34 1001.24 1002.05 1002.77 1003.40 1004.00 1004.60 1005.24 1005.92 1006.67 1007.47 1008.30 1009.13 1009.93 1010.65 1011.29 1011.83 1012.28 1012.65 1012.95 1013.22 1013.46 1013.68 1013.89 1014.07 1014.23 1014.34 1014.42
1002.18 1001.25 1000.17 999.00 997.79 996.63 995.61 994.80 994.28 994.07 994.19 994.61 995.29 996.15 997.11 998.10 999.05 999.94 1000.74 1001.46 1002.11 1002.75 1003.40 1004.10 1004.86 1005.69 1006.57 1007.46 1008.35 1009.19 1009.97 1010.65 1011.24 1011.75 1012.19 1012.58 1012.94 1013.28 1013.60 1013.90 1014.17 1014.39 1014.55 1014.65
1001.67 1000.54 999.29 997.97 996.66 995.44 994.39 993.57 993.06 992.88 993.02 993.46 994.14 994.99 995.94 996.91 997.84 998.71 999.50 1000.23 1000.92 1001.61 1002.33 1003.10 1003.94 1004.85 1005.79 1006.76 1007.70 1008.59 1009.40 1010.13 1010.77 1011.33 1011.84 1012.30 1012.75 1013.17 1013.59 1013.97 1014.31 1014.59 1014.80 1014.92
1001.07 999.77 998.39 996.97 995.60 994.35 993.29 992.51 992.03 991.88 992.05 992.50 993.19 994.04 994.96 995.90 996.82 997.67 998.46 999.21 999.93 1000.67 1001.45 1002.30 1003.21 1004.18 1005.19 1006.21 1007.19 1008.12 1008.96 1009.72 1010.40 1011.01 1011.56 1012.09 1012.59 1013.09 1013.57 1014.02 1014.42 1014.74 1014.98 1015.12
1000.42 999.02 997.55 996.08 994.69 993.44 992.42 991.68 991.25 991.15 991.36 991.84 992.54 993.37 994.28 995.20 996.09 996.93 997.72 998.48 999.23 1000.01 1000.84 1001.74 1002.70 1003.72 1004.78 1005.82 1006.83 1007.78 1008.65 1009.43 1010.12 1010.75 1011.34 1011.90 1012.44 1012.97 1013.49 1013.98 1014.41 1014.76 1015.02 1015.18
999.79 998.34 996.84 995.37 993.99 992.79 991.83 991.16 990.80 990.77 991.03 991.54 992.25 993.08 993.98 994.88 995.76 996.58 997.37 998.13 998.89 999.69 1000.54 1001.46 1002.44 1003.48 1004.54 1005.60 1006.61 1007.56 1008.43 1009.22 1009.92 1010.56 1011.15 1011.72 1012.27 1012.81 1013.34 1013.83 1014.27 1014.63 1014.90 1015.08
999.21 997.77 996.30 994.87 993.56 992.44 991.56 990.98 990.70 990.74 991.06 991.62 992.36 993.20 994.10 994.99 995.85 996.66 997.43 998.18 998.93 999.71 1000.55 1001.45 1002.42 1003.44 1004.49 1005.52 1006.52 1007.45 1008.31 1009.09 1009.78 1010.42 1011.00 1011.55 1012.09 1012.61 1013.12 1013.59 1014.01 1014.36 1014.64 1014.82
998.70 997.31 995.92 994.57 993.35 992.33 991.57 991.09 990.92 991.04 991.44 992.05 992.83 993.70 994.60 995.49 996.34 997.14 997.88 998.60 999.31 1000.06 1000.85 1001.70 1002.62 1003.58 1004.58 1005.57 1006.53 1007.44 1008.28 1009.04 1009.72 1010.34 1010.91 1011.44 1011.94 1012.42 1012.89 1013.32 1013.70 1014.03 1014.29 1014.48
998.22 996.94 995.65 994.42 993.32 992.43 991.78 991.42 991.36 991.59 992.07 992.75 993.58 994.49 995.41 996.31 997.16 997.93 998.65 999.32 999.98 1000.65 1001.37 1002.15 1002.99 1003.88 1004.80 1005.73 1006.65 1007.52 1008.34 1009.08 1009.74 1010.35 1010.89 1011.39 1011.85 1012.29 1012.69 1013.07 1013.40 1013.70 1013.94 1014.12
997.76 996.60 995.43 994.34 993.38 992.62 992.12 991.89 991.95 992.29 992.86 993.63 994.52 995.47 996.43 997.34 998.18 998.94 999.62 1000.24 1000.83 1001.43 1002.06 1002.74 1003.48 1004.28 1005.12 1005.99 1006.86 1007.69 1008.48 1009.20 1009.85 1010.44 1010.96 1011.42 1011.84 1012.22 1012.57 1012.88 1013.17 1013.41 1013.63 1013.81
997.27 996.23 995.21 994.26 993.45 992.84 992.48 992.39 992.58 993.03 993.71 994.56 995.52 996.52 997.51 998.44 999.28 1000.02 1000.66 1001.23 1001.76 1002.27 1002.81 1003.40 1004.04 1004.75 1005.51 1006.31 1007.12 1007.92 1008.68 1009.38 1010.02 1010.59 1011.09 1011.52 1011.90 1012.22 1012.51 1012.77 1013.00 1013.20 1013.38 1013.55
996.73 995.83 994.95 994.15 993.50 993.04 992.83 992.88 993.19 993.75 994.52 995.45 996.47 997.52 998.54 999.49 1000.33 1001.05 1001.67 1002.19 1002.65 1003.10 1003.55 1004.05 1004.61 1005.23 1005.92 1006.66 1007.42 1008.17 1008.90 1009.59 1010.21 1010.76 1011.23 1011.63 1011.96 1012.24 1012.48 1012.69 1012.87 1013.03 1013.19 1013.35
996.18 995.41 994.67 994.03 993.53 993.23 993.16 993.34 993.76 994.42 995.27 996.26 997.33 998.41 999.45 1000.40 1001.23 1001.94 1002.52 1003.01 1003.42 1003.81 1004.20 1004.63 1005.11 1005.67 1006.29 1006.97 1007.68 1008.39 1009.09 1009.75 1010.34 1010.86 1011.30 1011.67 1011.96 1012.21 1012.40 1012.57 1012.72 1012.87 1013.02 1013.18
995.67 995.03 994.44 993.95 993.61 993.45 993.51 993.79 994.31 995.04 995.94 996.96 998.04 999.13 1000.16 1001.10 1001.92 1002.61 1003.16 1003.62 1004.00 1004.34 1004.68 1005.06 1005.50 1006.00 1006.57 1007.19 1007.85 1008.52 1009.17 1009.78 1010.34 1010.82 1011.22 1011.55 1011.82 1012.03 1012.20 1012.35 1012.49 1012.64 1012.80 1012.98
995.29 994.80 994.36 994.02 993.81 993.78 993.95 994.32 994.90 995.66 996.57 997.59 998.65 999.70 1000.70 1001.60 1002.39 1003.04 1003.57 1003.99 1004.35 1004.66 1004.98 1005.33 1005.72 1006.18 1006.70 1007.27 1007.88 1008.49 1009.08 1009.64 1010.14 1010.57 1010.93 1011.23 1011.46 1011.66 1011.82 1011.98 1012.14 1012.31 1012.51 1012.73
995.14 994.79 994.50 994.30 994.22 994.30 994.54 994.97 995.58 996.34 997.22 998.19 999.19 1000.17 1001.10 1001.94 1002.66 1003.27 1003.76 1004.16 1004.49 1004.79 1005.09 1005.42 1005.78 1006.21 1006.68 1007.20 1007.74 1008.29 1008.82 1009.30 1009.74 1010.11 1010.43 1010.69 1010.90 1011.10 1011.28 1011.46 1011.67 1011.89 1012.15 1012.43
995.26 995.06 994.91 994.84 994.87 995.03 995.34 995.79 996.38 997.10 997.92 998.81 999.71 1000.59 1001.42 1002.17 1002.81 1003.36 1003.80 1004.17 1004.48 1004.76 1005.05 1005.35 1005.70 1006.09 1006.52 1006.98 1007.46 1007.93 1008.38 1008.79 1009.15 1009.47 1009.74 1009.97 1010.18 1010.39 1010.60 1010.84 1011.11 1011.41 1011.75 1012.11
995.67 995.60 995.58 995.62 995.75 995.97 996.31 996.76 997.32 997.97 998.70 999.47 1000.26 1001.02 1001.73 1002.36 1002.91 1003.38 1003.77 1004.09 1004.37 1004.64 1004.91 1005.20 1005.52 1005.87 1006.25 1006.65 1007.06 1007.46 1007.83 1008.16 1008.46 1008.72 1008.95 1009.17 1009.39 1009.63 1009.89 1010.20 1010.55 1010.94 1011.37 1011.81
996.32 996.37 996.46 996.59 996.79 997.06 997.41 997.84 998.35 998.93 999.55 1000.20 1000.86 1001.48 1002.06 1002.58 1003.03 1003.41 1003.73 1004.01 1004.26 1004.49 1004.74 1005.00 1005.29 1005.61 1005.94 1006.28 1006.62 1006.94 1007.24 1007.51 1007.75 1007.97 1008.18 1008.40 1008.64 1008.92 1009.25 1009.64 1010.07 1010.56 1011.07 1011.59
997.11 997.26 997.44 997.64 997.89 998.19 998.54 998.95 999.41 999.91 1000.43 1000.97 1001.50 1002.00 1002.46 1002.86 1003.21 1003.51 1003.76 1003.98 1004.19 1004.39 1004.60 1004.83 1005.08 1005.35 1005.63 1005.92 1006.20 1006.46 1006.70 1006.92 1007.12 1007.32 1007.53 1007.76 1008.04 1008.37 1008.77 1009.23 1009.75 1010.32 1010.91 1011.49
997.95 998.16 998.40 998.65 998.94 999.26 999.61 999.99 1000.41 1000.85 1001.29 1001.74 1002.16 1002.56 1002.91 1003.21 1003.47 1003.69 1003.87 1004.04 1004.19 1004.35 1004.52 1004.71 1004.92 1005.15 1005.39 1005.63 1005.86 1006.07 1006.28 1006.47 1006.66 1006.86 1007.08 1007.35 1007.67 1008.06 1008.52 1009.05 1009.63 1010.26 1010.90 1011.52
998.72 998.98 999.25 999.53 999.84 1000.17 1000.53 1000.90 1001.29 1001.68 1002.08 1002.45 1002.80 1003.11 1003.38 1003.61 1003.79 1003.94 1004.06 1004.17 1004.27 1004.38 1004.51 1004.66 1004.83 1005.02 1005.22 1005.43 1005.63 1005.83 1006.02 1006.21 1006.41 1006.63 1006.89 1007.20 1007.56 1008.00 1008.52 1009.09 1009.72 1010.37 1011.03 1011.67
Thickness
5770 5783 5789 5790 5793 5796 5787 5776 5766 5770 5774 5786 5795 5798 5801 5803 5803 5803 5802 5801 5801 5800 5799 5798 5797 5796 5795 5793 5791 5789 5785 5781 5779 5778 5775 5773 5771 5769 5768 5765 5763 5761 5758 5756
5763 5780 5784 5783 5791 5794 5792 5789 5782 5779 5779 5797 5799 5799 5797 5797 5798 5795 5796 5798 5798 5797 5796 5795 5794 5793 5791 5789 5787 5786 5782 5779 5777 5775 5772 5770 5768 5767 5764 5762 5760 5758 5756 5754
5738 5760 5768 5759 5780 5785 5783 5787 5784 5773 5782 5793 5791 5790 5791 5792 5793 5792 5792 5793 5793 5793 5793 5792 5792 5791 5787 5786 5784 5781 5778 5776 5774 5772 5769 5768 5766 5763 5761 5759 5757 5754 5753 5751
5726 5738 5729 5755 5788 5792 5782 5781 5786 5786 5789 5791 5789 5789 5791 5792 5790 5788 5789 5790 5789 5789 5789 5789 5788 5787 5785 5783 5779 5775 5772 5770 5770 5768 5766 5764 5762 5759 5758 5755 5752 5751 5749 5747
5711 5714 5727 5755 5776 5782 5772 5763 5779 5780 5782 5784 5786 5781 5779 5787 5789 5787 5786 5787 5787 5786 5785 5784 5782 5781 5778 5775 5772 5769 5767 5766 5765 5764 5762 5760 5757 5755 5754 5751 5749 5748 5746 5744
5707 5709 5710 5740 5772 5785 5773 5747 5772 5775 5774 5775 5774 5755 5761 5778 5782 5783 5783 5782 5781 5781 5779 5777 5775 5775 5770 5767 5764 5763 5762 5762 5762 5760 5758 5756 5754 5752 5750 5748 5746 5744 5742 5740
5702 5703 5716 5750 5770 5773 5741 5741 5766 5771 5771 5769 5763 5762 5767 5773 5775 5776 5775 5775 5775 5773 5771 5770 5769 5766 5761 5759 5758 5760 5759 5758 5757 5756 5754 5752 5750 5748 5746 5743 5740 5738 5736 5735
5694 5694 5708 5751 5757 5746 5743 5757 5761 5763 5765 5763 5763 5763 5764 5765 5766 5767 5766 5766 5766 5764 5762 5762 5762 5759 5754 5752 5755 5756 5754 5751 5750 5750 5748 5748 5744 5742 5740 5737 5734 5731 5729 5727
5703 5708 5730 5746 5749 5752 5754 5751 5753 5755 5757 5758 5756 5754 5755 5755 5756 5756 5757 5757 5757 5755 5753 5753 5753 5752 5747 5748 5750 5749 5746 5744 5743 5742 5741 5740 5737 5735 5732 5730 5727 5725 5723 5721
5703 5714 5726 5735 5742 5746 5748 5747 5750 5752 5752 5752 5747 5746 5747 5746 5745 5746 5746 5746 5746 5746 5744 5744 5745 5745 5744 5744 5744 5741 5738 5736 5735 5733 5733 5732 5731 5729 5727 5725 5723 5720 5717 5715
5695 5707 5715 5723 5730 5735 5739 5742 5743 5744 5745 5744 5741 5738 5737 5736 5736 5737 5737 5737 5738 5736 5735 5735 5737 5736 5737 5736 5734 5732 5730 5728 5726 5726 5725 5724 5724 5723 5722 5722 5721 5718 5716 5714
5686 5701 5702 5708 5720 5728 5728 5730 5731 5731 5731 5733 5732 5729 5729 5727 5727 5728 5727 5728 5727 5727 5727 5727 5728 5727 5728 5728 5726 5723 5720 5719 5718 5717 5717 5715 5714 5714 5715 5715 5714 5713 5712 5710
5696 5704 5706 5712 5716 5721 5721 5722 5723 5723 5722 5721 5722 5722 5720 5718 5718 5718 5718 5717 5716 5716 5717 5717 5718 5718 5720 5719 5717 5715 5712 5711 5710 5709 5708 5707 5706 5704 5703 5704 5705 5704 5704 5703
5698 5699 5698 5703 5705 5711 5713 5715 5715 5714 5714 5714 5712 5712 5710 5709 5708 5708 5708 5708 5708 5707 5707 5707 5708 5709 5711 5711 5708 5706 5704 5704 5703 5701 5700 5699 5697 5696 5695 5694 5693 5694 5695 5694
5691 5694 5693 5697 5700 5702 5704 5704 5702 5700 5701 5702 5702 5701 5700 5698 5698 5698 5699 5700 5699 5697 5697 5698 5698 5699 5701 5700 5698 5696 5694 5694 5694 5694 5693 5691 5690 5688 5687 5687 5686 5685 5684 5684
5683 5685 5688 5688 5689 5691 5692 5692 5690 5690 5691 5691 5691 5690 5691 5690 5690 5690 5690 5690 5688 5687 5688 5688 5688 5690 5691 5691 5689 5687 5686 5686 5686 5685 5684 5683 5682 5680 5679 5678 5678 5677 5676 5675
5669 5670 5673 5675 5678 5680 5682 5683 5683 5683 5683 5683 5682 5683 5682 5681 5680 5679 5680 5680 5680 5680 5680 5680 5680 5681 5681 5681 5679 5678 5678 5677 5677 5676 5675 5674 5673 5673 5672 5671 5670 5670 5669 5669
5667 5668 5670 5670 5671 5672 5674 5676 5676 5677 5676 5677 5676 5674 5673 5671 5670 5670 5671 5671 5670 5670 5671 5673 5673 5672 5672 5672 5671 5670 5669 5668 5667 5666 5666 5665 5665 5665 5665 5664 5663 5662 5661 5660
5662 5663 5665 5666 5668 5668 5667 5668 5668 5669 5669 5669 5667 5665 5665 5664 5664 5663 5663 5662 5660 5660 5663 5665 5665 5664 5663 5663 5663 5661 5661 5660 5658 5658 5658 5657 5657 5657 5656 5655 5655 5655 5654 5653
5655 5656 5659 5661 5663 5662 5661 5661 5662 5661 5661 5661 5658 5657 5656 5656 5656 5655 5654 5653 5655 5656 5658 5658 5656 5655 5655 5655 5655 5653 5652 5651 5651 5650 5650 5649 5649 5649 5649 5648 5648 5647 5645 5644
5648 5650 5651 5652 5653 5655 5655 5655 5654 5652 5652 5652 5650 5649 5648 5649 5649 5647 5645 5645 5649 5651 5650 5649 5648 5648 5648 5648 5647 5645 5644 5643 5643 5642 5641 5641 5641 5641 5641 5640 5639 5638 5638 5637
5640 5641 5643 5645 5645 5645 5646 5646 5646 5645 5643 5642 5643 5642 5641 5640 5640 5639 5640 5640 5643 5644 5643 5642 5642 5642 5642 5640 5638 5638 5637 5637 5636 5635 5634 5634 5633 5633 5633 5632 5631 5631 5630 5629
5634 5636 5637 5637 5637 5637 5638 5639 5639 5638 5637 5637 5636 5636 5635 5635 5634 5632 5632 5636 5637 5638 5636 5636 5637 5637 5635 5633 5632 5631 5631 5631 5629 5628 5627 5627 5627 5626 5625 5624 5623 5623 5621 5620
5628 5629 5630 5631 5631 5629 5629 5630 5631 5631 5632 5632 5632 5631 5630 5629 5628 5629 5630 5632 5633 5631 5629 5629 5630 5630 5629 5627 5625 5624 5624 5624 5623 5622 5622 5621 5620 5620 5618 5617 5615 5614 5613 5612
5622 5623 5623 5623 5622 5622 5623 5624 5624 5624 5625 5625 5626 5626 5626 5625 5624 5625 5625 5626 5626 5624 5621 5621 5621 5620 5619 5619 5618 5618 5617 5616 5616 5615 5615 5614 5612 5611 5610 5609 5608 5607 5605 5604
5615 5615 5616 5617 5617 5618 5619 5618 5617 5617 5618 5618 5619 5620 5620 5621 5621 5620 5619 5619 5618 5616 5615 5614 5613 5612 5612 5611 5611 5610 5609 5609 5609 5608 5608 5607 5605 5604 5603 5601 5601 5599 5598 5597
5610 5610 5610 5611 5612 5614 5614 5613 5612 5612 5613 5613 5612 5613 5614 5614 5614 5613 5612 5612 5610 5609 5608 5607 5607 5606 5606 5605 5604 5604 5603 5602 5602 5601 5600 5599 5598 5597 5596 5595 5594 5593 5591 5590